TimeMST,TemperatureF,Dew PointF,Humidity,Sea Level PressureIn,VisibilityMPH,Wind Direction,Wind SpeedMPH,Gust SpeedMPH,PrecipitationIn,Events,Conditions,WindDirDegrees,DateUTC
12:53 AM,28.0,25.0,88,30.19,10.0,North,5.8,-,N/A,,Overcast,350,2013-03-08 07:53:00
1:53 AM,28.9,26.1,89,30.19,10.0,Calm,Calm,-,N/A,,Overcast,0,2013-03-08 08:53:00
2:53 AM,27.0,25.0,92,30.16,10.0,Calm,Calm,-,N/A,,Overcast,0,2013-03-08 09:53:00
3:53 AM,27.0,25.0,92,30.16,9.0,Calm,Calm,-,N/A,,Overcast,0,2013-03-08 10:53:00
4:53 AM,28.9,26.1,89,30.15,10.0,North,4.6,-,N/A,,Overcast,360,2013-03-08 11:53:00
5:53 AM,30.9,27.0,85,30.15,10.0,North,4.6,-,N/A,,Overcast,360,2013-03-08 12:53:00
6:53 AM,28.0,25.0,88,30.19,8.0,South,4.6,-,N/A,,Partly Cloudy,180,2013-03-08 13:53:00
7:53 AM,30.0,27.0,88,30.19,9.0,Calm,Calm,-,N/A,,Clear,0,2013-03-08 14:53:00
8:53 AM,32.0,28.0,85,30.19,10.0,SE,4.6,-,N/A,,Overcast,130,2013-03-08 15:53:00
9:53 AM,32.0,27.0,82,30.18,10.0,ESE,8.1,-,N/A,,Overcast,110,2013-03-08 16:53:00
10:53 AM,33.1,27.0,78,30.17,10.0,East,10.4,-,N/A,,Overcast,100,2013-03-08 17:53:00
11:21 AM,35.6,26.6,70,30.08,10.0,East,10.4,-,N/A,,Overcast,100,2013-03-08 18:21:00
11:39 AM,35.6,28.4,75,30.07,10.0,East,10.4,-,N/A,,Overcast,100,2013-03-08 18:39:00
11:53 AM,35.1,28.0,76,30.15,10.0,East,11.5,-,N/A,,Overcast,90,2013-03-08 18:53:00
12:53 PM,36.0,28.0,73,30.10,10.0,East,11.5,-,N/A,,Scattered Clouds,100,2013-03-08 19:53:00
1:53 PM,37.9,28.0,68,30.06,10.0,East,15.0,20.7,N/A,,Clear,90,2013-03-08 20:53:00
2:53 PM,39.0,28.0,65,30.04,10.0,East,16.1,-,N/A,,Clear,90,2013-03-08 21:53:00
3:53 PM,37.9,27.0,65,30.02,10.0,East,17.3,23.0,N/A,,Clear,80,2013-03-08 22:53:00
4:53 PM,35.1,27.0,72,30.00,10.0,East,16.1,23.0,N/A,,Clear,80,2013-03-08 23:53:00
5:53 PM,30.9,26.1,82,30.02,8.0,East,11.5,-,N/A,,Clear,80,2013-03-09 00:53:00
6:53 PM,28.9,26.1,89,30.04,8.0,ENE,12.7,-,N/A,,Clear,70,2013-03-09 01:53:00
7:53 PM,28.9,26.1,89,30.06,6.0,ENE,9.2,-,N/A,,Overcast,70,2013-03-09 02:53:00
8:06 PM,28.4,26.6,93,29.97,6.0,East,9.2,-,N/A,,Overcast,80,2013-03-09 03:06:00
8:53 PM,28.0,25.0,88,30.04,5.0,ENE,9.2,-,N/A,,Overcast,70,2013-03-09 03:53:00
9:53 PM,28.0,25.0,88,30.02,5.0,East,6.9,-,N/A,,Overcast,80,2013-03-09 04:53:00
10:53 PM,27.0,25.0,92,29.98,4.0,East,6.9,-,N/A,,Overcast,90,2013-03-09 05:53:00
11:04 PM,26.6,24.8,93,29.90,4.0,ENE,6.9,-,N/A,,Overcast,60,2013-03-09 06:04:00
11:53 PM,27.0,25.0,92,29.96,3.0,East,5.8,-,N/A,,Overcast,100,2013-03-09 06:53:00